Weather in Min'kovo

Russia / Vologda Oblast     59°41′56″N   43°29′00″E
temp.,
°C
wind,
m/s
gust,
m/s
humid.,
%
clouds,
%
prec.,
mm/h
press.,
hPa
HPBL,
m
24 october, sun
sun2400:00+2wsw269696 0.2 1003495
03:00+2w1498100 0.6 1003454
06:00+2wnw1299100 0.7 1004240
09:00+2sw1399100 1.4 1004268
12:00+1n3697100 1.3 1006399
15:00−1n51095100 2.9 1009736
18:00−1n41087100 0.9 10131083
21:00−1nnw4108898 0.9 1015742
25 october, mon
mon2500:00−3nnw4119122 0.0 1018515
03:00−4nw3109524 0.0 1020379
06:00−4wnw39945 0.0 1021295
09:00−3w38805 0.0 1022339
12:000w4665100 0.0 1022666
15:000wsw3877100 0.0 1021802
18:00−1sw31078100 0.0 1020617
21:00−1ssw41196100 1.1 1017600
26 october, tue
tue2600:00−1ssw41297100 1.7 1014718
03:00+1sw41297100 3.1 1013750
06:00+1wsw51297100 2.1 1012735
09:00+2wsw51298100 2.9 1012704
12:00+2wsw41098100 0.1 1012624
15:00+2wsw41098100 0.1 1013480
18:00+2wsw31098100 0.3 1013511
21:00+2sw3996100 0.6 1012507
27 october, wed
wed2700:000sw31096100 0.0 1012445
03:000sw3996100 0.0 1012433
06:00+1sw3996100 0.0 1011429
09:00+1sw41096100 0.1 1010397
12:00+2sw41193100 0.3 1009537
15:00+2sw41195100 0.7 1007564
18:00+2wsw41097100 0.8 1007685
21:00+2wsw41098100 1.8 1006661
28 october, thu
thu2800:00+3wsw4998100 0.1 1006769
03:00+3w4998100 0.7 1006677
06:00+4w41096100 0.1 1007777
09:00+4w51190100 0.3 1009871
12:00+4wnw4994100 0.3 10101134
15:00+2wnw31097100 1.1 1011638
18:00−1n4887100 0.8 1014808
21:00−4n398437 0.8 1017701